Weather Roundup
Issued by NWS

Home | Current Version | Previous Version | Graphics & Text | Print | Product List | Glossary Off
Versions: 1 2 3 4 5 6 7 8 9 10 11 12 13 14 15 16 17 18 19 20 21 22 23 24 25 26 27 28 29 30 31 32 33 34 35 36 37 38 39 40 41 42 43 44 45 46 47 48 49 50

000
NZUS93 KARX 242059
HRRWXR

CURRENT HOURLY OBSERVATIONS ACROSS
MUCH OF THE UPPER MISSISSIPPI VALLEY
NATIONAL WEATHER SERVICE LA CROSSE WI
400 PM CDT FRI APR 24 2015


...SOUTHEAST MINNESOTA...


CITY           SKY/WX    TMP DP  RH WIND       PRES   REMARKS
ROCHESTER      LGT RAIN  43  40  89 SE18      29.83R FOG
ROCHESTER/MAYO CLOUDY    43  39  85 SE14      29.84F
WINONA         DRIZZLE   48  34  57 SE13      29.87S
AUSTIN         RAIN      43  39  87 SE17G25   29.79F
ALBERT LEA     LGT RAIN  43  43 100 SE15G26   29.77S
DODGE CENTER   LGT RAIN  45  41  87 SE17G24   29.81S
PRESTON        CLOUDY    42  38  87 SE15      29.84F FOG
OWATONNA       LGT RAIN  45  39  81 SE13G20   29.79F
FARIBAULT      CLOUDY    46  39  76 E16G22    29.80F
$$

...ELSEWHERE IN MINNESOTA...


CITY           SKY/WX    TMP DP  RH WIND       PRES   REMARKS
MINNEAPOLIS    LGT RAIN  47  39  74 SE18G24   29.82F
INTNL FALLS    CLOUDY    41  22  46 E12       29.90F
DULUTH         CLOUDY    39  29  67 E14       29.93S WCI  31
RED WING       CLOUDY    52  34  50 SE15      29.83F
REDWOOD FALLS  CLOUDY    49  42  77 SE17G24   29.70F
MANKATO        CLOUDY    45  37  76 SE14      29.78R
WORTHINGTON    CLOUDY    54  45  71 SE18      29.65F
FAIRMONT       CLOUDY    46  16  29 SE18G28   29.70F
$$

...SOUTHWEST WISCONSIN...


CITY           SKY/WX    TMP DP  RH WIND       PRES   REMARKS
LA CROSSE      LGT RAIN  50  35  56 SE17      29.88F
PRAIRIE DU CHI LGT RAIN  43  41  92 E9        29.88S
BOSCOBEL       LGT RAIN  44  39  82 E9G22     29.91F
LONE ROCK      NOT AVBL
PLATTEVILLE    CLOUDY    46  38  75 NE14G20   29.90F
FORT MC COY    CLOUDY    52  25  35 E8        29.90F
VIROQUA        CLOUDY    43  38  84 SE12      29.89F
WIS DELLS      CLOUDY    52  21  30 S13       29.93F
$$

...ELSEWHERE IN WISCONSIN...


CITY           SKY/WX    TMP DP  RH WIND       PRES   REMARKS
MILWAUKEE      CLOUDY    45  25  45 SE9       29.99F
MADISON        LGT RAIN  45  37  73 S8        29.96S
GREEN BAY      PTSUNNY   52  22  30 SE12      29.99F
EAU CLAIRE     NOT AVBL
BLACK RVR FLS  CLOUDY    54  17  23 SE8       29.88F
MEDFORD        CLOUDY    53  22  29 E8G16     29.90F
WAUSAU         CLOUDY    56  18  22 SE15      29.90F
WIS RAPIDS     CLOUDY    57  15  19 SE12      29.91F
MARSHFIELD     CLOUDY    56  22  26 S12       29.89F
RICE LAKE      CLOUDY    52  20  28 E9        29.89F
$$

...NORTHEAST IOWA...


CITY           SKY/WX    TMP DP  RH WIND       PRES   REMARKS
DECORAH        CLOUDY    43  41  93 SE12G20   29.85F
MASON CITY     RAIN      44  42  93 SE21G26   29.77F FOG
CHARLES CITY   MIX PCPN  43  43 100 SE18G28   29.81F
OELWEIN        CLOUDY    45  39  81 E13G22    29.84R
$$

...ELSEWHERE IN IOWA...


CITY           SKY/WX    TMP DP  RH WIND       PRES   REMARKS
DES MOINES     CLOUDY    55  50  83 E10       29.72F
IOWA CITY      RAIN      47  43  86 NE10      29.85S FOG
FORT DODGE     CLOUDY    54  45  71 E17G23    29.71F
$$

...NORTHERN ILLINOIS...


CITY           SKY/WX    TMP DP  RH WIND       PRES   REMARKS
CHICAGO-OHARE  CLOUDY    53  19  26 NE12      29.94F
CHICAGO-MIDWAY CLOUDY    54  21  27 NE12      29.94F
MOLINE         CLOUDY    60  27  28 E17       29.81F
ROCKFORD       CLOUDY    53  27  36 NE15      29.94S
PEORIA         CLOUDY    63  30  28 SE20      29.86F
$$

NOTE: "FAIR" INDICATES FEW OR NO CLOUDS BELOW 12,000 FEET WITH NO
SIGNIFICANT WEATHER AND/OR OBSTRUCTIONS TO VISIBILITY. WIND
SPEEDS ARE IN MILES-PER-HOUR.



USA.gov is the U.S. government's official web portal to all federal, state and local government web resources and services.